Location: Harmony
(28.2000°N, 81.1500°W)
Time: 01:03:40
(UTC-04:00)

USA 238 DEB - Pass Details

Date: 18 December 2017
Orbit: 1064 x 1149 km, 63.4° (Epoch: 19 June)

Event Time Altitude Azimuth Distance (km) Brightness Sun altitude
Rises 17:54:30 0° 333° (NNW) 3,956 6.7 -5.3°
Reaches altitude 10° 17:57:11 10° 335° (NNW) 3,006 6.1 -5.9°
Maximum altitude 18:04:23 77° 62° (ENE) 1,170 3.8 -7.3°
Drops below altitude 10° 18:11:38 10° 148° (SSE) 3,033 6.0 -8.8°
Sets 18:14:21 0° 149° (SSE) 3,993 6.6 -9.3°
